Location: Kelshall
(52.0000°N, 0.0500°W)
Time: 03:38:33
(UTC+00:00)

ATLAS CENTAUR R/B - Pass Details

Date: 22 January 2021
Orbit: 475 x 670 km, 64.7° (Epoch: 06 March)

Event Time Altitude Azimuth Distance (km) Brightness Sun altitude
Rises 05:52:03 0° 187° (S) 2,540 4.7 -18.3°
Reaches altitude 10° 05:54:29 10° 172° (S) 1,650 4.0 -18.0°
Maximum altitude 05:57:24 23° 119° (ESE) 1,064 3.6 -17.5°
Drops below altitude 10° 06:00:19 10° 66° (ENE) 1,652 4.6 -17.1°
Sets 06:02:45 0° 51° (NE) 2,543 5.3 -16.7°
